Record,Date/Time,10,Tamb(K),Rh(%),Pres(mb),Tir(K),Rain,Az(deg),El(deg),TkBB(K), Ch  22.234, Ch  23.034, Ch  23.834, Ch  26.234, Ch  30.000, Ch  51.248, Ch  52.280, Ch  53.848, Ch  54.940, Ch  56.660, Ch  57.288, Ch  58.800, Ch 
Record,Date/Time,40,Tamb(K),Rh(%),Pres(mb),Tir(K),Rain
Record,Date/Time,50,Az(deg),El(deg),TkBB(K), Ch  22.000, Ch  22.234, Ch  22.500, Ch  23.000, Ch  23.034, Ch  23.500, Ch  23.834, Ch  24.000, Ch  24.500, Ch  25.000, Ch  25.500, Ch  26.000, Ch  26.234, Ch  26.500, Ch  27.000, Ch  27.500, Ch  28.000, Ch  28.500, Ch  29.000, Ch  29.500, Ch  30.000, Ch  51.248, Ch  51.760, Ch  52.280, Ch  52.804, Ch  53.336, Ch  53.848, Ch  54.400, Ch  54.940, Ch  55.500, Ch  56.020, Ch  56.660, Ch  57.288, Ch  57.964, Ch  58.800, Ch 
Record,Date/Time,80,ID,SNR,Tamb(K),Rh(%),Pres(mb),Tir(K),Rain,Az(deg),El(deg),TkBB(K), Ch  22.234, Ch  23.034, Ch  23.834, Ch  26.234, Ch  30.000, Ch  51.248, Ch  52.280, Ch  53.848, Ch  54.940, Ch  56.660, Ch  57.288, Ch  58.800, Ch 
     1,05/05/19 00:04:42,41, 285.9290,  74.3900,1011.9900, 262.9900,1
     2,05/05/19 00:05:26,51,  0.00, 19.80,300.221, 71.750, 75.157, 75.933, 72.529, 72.686, 67.791, 63.758, 62.466, 56.438, 51.496, 48.872, 45.487, 44.572, 43.526, 43.054, 42.642, 40.744, 41.119, 40.350, 41.091, 42.206,216.550,235.609,254.116,270.755,280.423,284.056,284.596,285.194,284.121,283.442,283.761,282.556,283.998,284.700,
     3,05/05/19 00:05:48,51,  0.00, 90.00,300.230, 27.359, 28.936, 29.758, 28.253, 28.223, 26.296, 24.556, 24.466, 21.890, 19.928, 19.056, 18.002, 17.385, 16.795, 17.300, 17.142, 15.970, 16.522, 16.400, 16.795, 16.784,111.910,129.377,153.453,184.358,219.932,252.441,274.034,282.425,284.012,282.396,282.919,279.455,282.736,282.501,
     4,05/05/19 00:06:10,51,  0.00,160.20,300.218, 67.738, 71.414, 71.498, 68.158, 68.380, 63.359, 59.556, 58.155, 52.487, 48.521, 45.092, 42.362, 41.452, 40.291, 40.320, 39.547, 37.973, 37.744, 37.501, 37.350, 39.733,209.880,229.517,249.920,267.963,279.290,283.474,285.037,285.001,284.302,282.925,283.908,282.733,284.687,283.592,
     5,05/05/19 00:06:33,41, 285.9950,  74.8200,1011.9380, 254.5400,1
     6,05/05/19 00:07:17,51,  0.00, 19.80,300.159, 72.134, 75.283, 75.419, 72.265, 72.300, 67.280, 63.976, 62.185, 56.581, 51.446, 48.839, 45.184, 44.668, 43.599, 43.017, 42.397, 40.835, 40.951, 40.194, 40.866, 42.088,216.475,234.527,253.591,271.073,280.370,284.217,284.838,284.883,283.915,283.455,283.908,282.492,283.695,284.486,
     7,05/05/19 00:07:39,51,  0.00, 90.00,300.155, 28.103, 29.360, 29.147, 28.163, 28.317, 26.154, 25.238, 24.030, 22.066, 19.899, 19.140, 17.863, 17.816, 16.489, 17.208, 17.064, 16.372, 16.761, 16.387, 16.812, 16.993,111.502,128.742,152.719,184.531,220.323,253.354,274.661,282.442,283.563,282.064,283.289,280.184,282.698,282.776,
     8,05/05/19 00:08:02,51,  0.00,160.20,300.149, 68.704, 71.529, 71.477, 68.026, 68.427, 63.059, 60.200, 58.427, 52.369, 48.137, 44.954, 41.830, 41.783, 40.069, 40.039, 39.239, 38.368, 37.793, 37.837, 37.925, 39.154,209.571,228.803,249.222,268.250,279.418,284.345,285.467,285.097,284.326,283.376,284.141,282.763,284.204,284.073,
     9,05/05/19 00:08:25,41, 285.8700,  74.6600,1011.9780, 258.4900,1
    10,05/05/19 00:09:09,51,  0.00, 19.80,300.061, 72.495, 75.705, 75.921, 72.519, 72.507, 67.524, 63.945, 62.329, 56.992, 51.710, 49.225, 44.929, 44.730, 43.178, 43.155, 42.397, 40.600, 40.600, 39.962, 40.498, 42.162,217.013,234.250,253.824,270.597,280.619,283.881,284.490,284.645,284.660,283.328,283.670,281.967,284.508,284.326,
    11,05/05/19 00:09:31,51,  0.00, 90.00,300.107, 28.028, 29.410, 29.533, 27.824, 28.254, 26.002, 24.643, 23.995, 22.004, 20.077, 19.114, 17.756, 17.731, 16.813, 17.592, 17.176, 15.849, 16.706, 16.156, 15.818, 16.641,112.045,128.505,153.103,184.425,219.933,253.240,274.774,282.789,284.115,283.003,283.019,279.680,282.852,281.877,
    12,05/05/19 00:09:53,51,  0.00,160.20,300.091, 68.590, 71.378, 71.165, 67.979, 68.072, 62.968, 59.454, 58.020, 52.928, 48.369, 44.878, 41.858, 41.329, 40.008, 40.384, 39.605, 38.055, 37.657, 37.587, 37.378, 39.143,210.467,228.597,249.372,268.139,279.255,284.213,284.847,284.848,285.300,283.604,283.660,282.277,284.326,284.094,
    13,05/05/19 00:10:16,41, 286.0380,  75.2900,1012.0440, 239.8400,1
    14,05/05/19 00:11:00,51,  0.00, 19.80,300.034, 71.774, 75.002, 75.497, 72.441, 72.083, 67.533, 63.479, 62.143, 56.387, 51.135, 48.818, 44.783, 44.224, 43.962, 43.079, 42.285, 40.594, 40.870, 40.029, 40.657, 42.294,216.256,234.194,254.161,270.880,280.746,284.417,284.797,284.570,284.678,283.466,283.893,282.729,284.290,284.589,
    15,05/05/19 00:11:22,51,  0.00, 90.00,300.047, 28.139, 29.376, 29.515, 28.005, 28.003, 25.878, 24.698, 24.126, 21.587, 19.847, 19.125, 17.499, 17.309, 17.083, 17.261, 16.898, 16.303, 16.645, 16.493, 16.527, 17.740,111.653,128.597,153.181,184.592,220.389,253.521,275.165,282.254,284.287,282.791,283.894,280.151,282.827,283.509,
    16,05/05/19 00:11:45,51,  0.00,160.20,300.055, 68.736, 71.990, 71.492, 68.000, 68.834, 63.426, 59.992, 58.271, 52.879, 48.598, 45.252, 42.217, 41.756, 41.101, 40.616, 39.532, 38.200, 38.249, 37.652, 37.801, 40.168,209.418,228.037,249.876,268.287,279.643,284.574,284.872,285.262,285.398,284.089,284.128,282.945,284.819,285.413,
    17,05/05/19 00:12:08,41, 286.1090,  73.9900,1011.9960, 232.7200,1
    18,05/05/19 00:12:52,51,  0.00, 19.80,300.022, 72.026, 75.565, 75.808, 71.969, 72.309, 67.228, 63.501, 61.662, 56.208, 51.264, 48.793, 44.714, 44.244, 43.452, 42.992, 42.339, 40.503, 40.845, 39.936, 41.679, 41.742,216.341,234.370,253.993,270.464,280.421,284.042,284.052,284.015,284.520,282.954,283.797,282.533,283.874,283.921,
    19,05/05/19 00:13:14,51,  0.00, 90.00,300.044, 28.016, 29.440, 29.618, 27.961, 28.389, 26.151, 24.597, 24.194, 22.108, 20.343, 19.394, 17.948, 17.489, 17.002, 17.831, 17.478, 16.371, 16.442, 16.302, 17.008, 17.004,111.425,128.725,152.914,184.197,220.122,253.350,274.449,281.807,283.778,282.934,282.935,280.388,282.516,282.803,
    20,05/05/19 00:13:36,51,  0.00,160.20,300.036, 68.863, 71.809, 71.763, 68.225, 68.783, 63.695, 59.642, 58.159, 52.375, 48.360, 45.605, 41.690, 41.683, 40.509, 40.756, 39.400, 37.729, 38.233, 37.898, 38.336, 39.179,209.879,228.796,249.656,267.715,279.501,284.508,284.803,284.157,284.347,284.161,283.587,282.487,283.949,283.983,
    21,05/05/19 00:14:00,41, 285.8980,  73.7200,1011.9800, 230.6600,1
    22,05/05/19 00:14:43,51,  0.00, 19.80,300.010, 72.214, 75.441, 75.629, 72.693, 72.605, 67.428, 63.786, 62.741, 56.424, 51.457, 48.425, 45.227, 44.767, 43.303, 42.805, 42.358, 40.496, 40.806, 40.291, 40.856, 42.428,216.365,234.767,254.089,270.700,280.820,284.099,284.751,284.022,283.905,283.348,284.507,282.830,284.024,284.177,
    23,05/05/19 00:15:05,51,  0.00, 90.00,299.990, 27.703, 29.136, 29.301, 27.486, 28.114, 25.659, 24.576, 24.085, 21.309, 20.148, 18.792, 17.492, 17.625, 16.381, 16.977, 16.894, 16.010, 16.134, 16.274, 16.199, 17.127,111.026,128.571,152.735,184.232,220.581,253.265,274.344,282.087,283.675,282.807,283.035,280.178,282.779,282.702,
    24,05/05/19 00:15:28,51,  0.00,160.20,300.012, 68.139, 70.977, 71.385, 67.752, 67.999, 62.678, 58.917, 58.332, 52.278, 48.055, 44.811, 41.563, 41.823, 39.891, 39.898, 38.973, 37.871, 37.670, 37.401, 37.819, 39.426,209.638,228.924,249.338,268.072,279.485,283.927,285.181,284.308,284.151,283.406,283.797,283.038,284.074,284.584,
    25,05/05/19 00:15:51,41, 285.7730,  74.4200,1011.9220, 232.3000,1
    26,05/05/19 00:16:35,51,  0.00, 19.80,299.904, 71.760, 75.971, 75.915, 72.292, 72.619, 67.388, 63.767, 62.553, 56.700, 51.358, 49.021, 44.825, 44.236, 43.464, 42.727, 42.044, 40.277, 40.729, 39.888, 40.413, 42.451,216.202,235.031,254.091,270.629,280.293,283.536,284.895,284.144,284.274,283.645,283.904,282.547,284.370,284.918,
    27,05/05/19 00:16:57,51,  0.00, 90.00,299.978, 27.601, 29.759, 29.616, 28.615, 28.485, 26.326, 24.693, 24.419, 22.307, 20.587, 19.412, 17.862, 17.969, 17.065, 17.270, 16.794, 16.187, 16.298, 16.532, 16.398, 17.806,111.067,128.757,153.395,184.213,220.586,252.594,274.782,282.204,284.119,282.410,283.035,280.077,283.232,282.860,
    28,05/05/19 00:17:19,51,  0.00,160.20,299.938, 68.244, 72.284, 71.718, 68.105, 68.544, 63.311, 59.749, 58.269, 53.022, 48.484, 45.289, 42.197, 41.623, 40.886, 40.191, 39.423, 38.176, 37.805, 37.668, 37.383, 39.772,209.676,229.117,250.050,268.016,279.639,283.503,285.264,284.784,284.102,283.427,283.420,282.422,284.208,284.651,
    29,05/05/19 00:17:43,41, 285.7450,  74.4000,1011.8700, 254.6300,1
    30,05/05/19 00:18:26,51,  0.00, 19.80,299.925, 71.935, 75.046, 75.788, 71.754, 71.729, 67.692, 63.494, 61.905, 56.775, 50.797, 48.476, 44.368, 44.354, 43.019, 42.945, 41.719, 40.064, 40.224, 39.775, 40.229, 41.238,216.320,234.162,253.594,270.479,279.875,284.472,285.120,284.943,284.276,283.281,284.072,283.175,283.905,284.597,
    31,05/05/19 00:18:48,51,  0.00, 90.00,299.920, 28.052, 29.326, 29.671, 28.113, 28.307, 26.499, 24.867, 24.235, 22.623, 19.946, 18.692, 17.491, 17.594, 16.903, 17.615, 16.529, 16.097, 16.433, 16.132, 16.395, 17.591,111.838,128.387,152.724,183.755,219.980,253.249,274.573,282.393,283.782,281.837,283.192,280.958,282.590,283.255,
    32,05/05/19 00:19:11,51,  0.00,160.20,299.906, 68.256, 71.592, 71.819, 68.105, 68.495, 63.444, 60.021, 58.332, 53.100, 48.281, 45.349, 41.912, 41.908, 40.577, 41.023, 39.020, 38.377, 37.856, 37.821, 37.935, 39.473,210.014,228.601,249.406,267.746,279.558,284.362,284.928,284.692,284.087,283.246,283.847,283.069,283.811,284.612,
    33,05/05/19 00:19:34,41, 285.7730,  74.4400,1011.8740, 244.7500,1
    34,05/05/19 00:20:18,51,  0.00, 19.80,299.879, 71.491, 74.893, 75.551, 71.958, 72.084, 66.543, 63.426, 62.005, 55.922, 50.905, 48.261, 44.321, 43.909, 42.984, 42.795, 42.308, 40.343, 40.024, 39.557, 40.541, 41.432,215.751,234.587,254.254,271.145,280.889,283.948,284.263,284.742,284.571,283.607,284.104,282.968,283.906,285.299,
    35,05/05/19 00:20:40,51,  0.00, 90.00,299.910, 27.434, 28.951, 29.321, 27.828, 28.245, 25.559, 24.602, 24.391, 21.667, 20.146, 18.658, 17.161, 17.344, 16.647, 17.037, 17.107, 16.154, 16.489, 16.500, 16.632, 16.344,110.858,128.642,153.166,184.540,220.439,253.085,274.751,282.466,284.713,282.959,283.415,280.502,282.862,283.348,
    36,05/05/19 00:21:02,51,  0.00,160.20,299.934, 68.277, 71.428, 71.328, 68.147, 68.130, 62.807, 59.449, 58.203, 52.632, 48.451, 44.880, 42.093, 41.912, 40.663, 40.192, 39.551, 38.101, 38.016, 37.833, 37.939, 39.312,209.478,228.992,249.995,268.469,279.602,283.825,284.764,284.858,284.542,283.500,284.037,282.870,284.102,285.060,
    37,05/05/19 00:21:26,41, 285.4680,  74.9800,1011.8880, 219.8700,1
    38,05/05/19 00:22:10,51,  0.00, 19.80,299.873, 72.233, 74.937, 75.853, 72.332, 72.180, 67.517, 63.877, 62.156, 56.327, 51.211, 48.540, 44.841, 44.540, 43.485, 42.752, 42.411, 40.526, 40.715, 39.863, 40.626, 42.311,216.119,234.321,254.018,271.065,280.601,284.171,284.787,284.428,284.924,283.502,283.703,282.811,283.918,284.277,
    39,05/05/19 00:22:32,51,  0.00, 90.00,299.870, 27.998, 29.212, 29.613, 27.969, 28.554, 26.157, 24.916, 24.085, 21.933, 19.989, 18.910, 17.514, 17.354, 17.092, 17.088, 16.987, 16.243, 16.530, 16.253, 15.984, 17.254,111.114,128.404,152.708,184.304,220.518,252.861,274.388,282.169,284.200,282.679,282.691,279.690,282.370,282.610,
    40,05/05/19 00:22:54,51,  0.00,160.20,299.871, 68.707, 71.512, 71.997, 68.685, 68.792, 63.807, 60.197, 58.434, 52.903, 48.627, 45.647, 42.392, 41.968, 40.622, 40.487, 39.920, 38.438, 38.023, 38.315, 38.231, 40.331,210.092,228.888,249.706,268.439,279.829,284.022,284.997,284.368,284.640,283.599,283.710,282.804,283.899,284.132,
    41,05/05/19 00:23:18,41, 285.8000,  75.6200,1011.8840, 236.2400,1
    42,05/05/19 00:24:02,51,  0.00, 19.80,299.858, 72.259, 75.473, 75.707, 72.344, 72.284, 67.483, 64.060, 62.562, 56.546, 51.643, 49.056, 45.253, 44.745, 43.912, 43.469, 43.005, 41.039, 41.061, 40.130, 40.932, 42.436,216.318,234.723,253.971,270.568,280.557,284.445,284.303,284.969,283.860,283.025,283.765,282.832,283.740,284.477,
    43,05/05/19 00:24:24,51,  0.00, 90.00,299.904, 27.963, 29.003, 29.314, 28.642, 28.071, 26.110, 24.810, 24.476, 22.179, 20.552, 19.053, 18.028, 17.786, 17.081, 17.294, 17.224, 16.551, 16.639, 16.309, 16.004, 16.797,111.416,128.676,153.163,184.217,220.331,253.367,274.148,282.445,283.798,282.580,282.781,280.377,282.353,283.368,
    44,05/05/19 00:24:47,51,  0.00,160.20,299.864, 68.378, 71.026, 71.353, 68.244, 67.978, 63.364, 59.963, 58.681, 52.715, 48.676, 45.131, 41.890, 41.869, 40.748, 40.536, 39.329, 38.309, 37.685, 37.138, 37.960, 39.583,209.310,228.498,249.578,267.854,279.260,284.071,284.615,285.182,284.522,283.059,283.619,282.472,283.848,284.326,
    45,05/05/19 00:25:10,41, 285.5380,  75.0400,1011.8420, 236.2600,1
    46,05/05/19 00:25:54,51,  0.00, 19.80,299.871, 72.520, 75.397, 76.128, 72.598, 72.452, 67.738, 64.359, 62.640, 56.772, 51.650, 49.135, 45.313, 44.931, 43.865, 43.495, 42.820, 41.159, 41.029, 40.578, 41.375, 42.510,216.735,234.652,254.849,271.031,280.344,284.082,284.312,284.489,284.693,283.921,284.163,282.022,283.887,283.772,
    47,05/05/19 00:26:16,51,  0.00, 90.00,299.837, 28.268, 29.257, 29.874, 28.135, 28.358, 26.551, 24.998, 24.560, 22.459, 20.158, 18.799, 17.631, 17.601, 16.637, 16.995, 17.145, 16.178, 16.246, 16.331, 16.077, 16.616,111.750,128.600,153.479,184.699,220.166,253.049,274.672,282.638,284.162,282.389,283.120,279.967,282.753,282.454,
    48,05/05/19 00:26:39,51,  0.00,160.20,299.862, 68.978, 71.475, 72.111, 68.128, 68.469, 63.559, 60.016, 58.871, 52.507, 48.644, 45.247, 42.415, 41.798, 40.277, 40.498, 39.519, 38.160, 37.685, 37.857, 37.985, 38.982,209.983,228.720,250.207,268.340,279.358,283.815,285.112,284.778,284.529,283.766,284.176,282.583,284.348,284.252,
    49,05/05/19 00:27:03,41, 285.7020,  75.3400,1011.8460, 246.4100,1
    50,05/05/19 00:27:46,51,  0.00, 19.80,299.825, 72.012, 74.902, 75.954, 72.226, 71.662, 67.206, 63.754, 61.806, 55.979, 51.420, 49.154, 45.230, 44.158, 43.315, 43.125, 42.012, 40.087, 40.706, 39.978, 41.038, 42.076,216.228,234.360,253.784,270.836,280.704,284.426,285.270,284.708,284.763,283.150,284.288,282.353,284.315,284.669,
    51,05/05/19 00:28:09,51,  0.00, 90.00,299.887, 28.010, 28.561, 29.220, 28.211, 27.905, 25.853, 24.534, 24.044, 21.527, 19.925, 18.916, 17.762, 17.215, 16.655, 17.310, 16.503, 15.817, 16.145, 15.901, 16.649, 16.944,110.697,128.330,152.591,183.748,220.467,253.167,274.846,282.208,284.440,282.516,283.283,279.684,282.563,282.448,
    52,05/05/19 00:28:31,51,  0.00,160.20,299.873, 68.675, 71.705, 72.025, 68.886, 68.441, 63.503, 59.977, 58.562, 53.017, 48.426, 45.680, 42.273, 42.154, 40.997, 40.969, 39.569, 38.204, 38.070, 37.951, 38.651, 39.945,209.253,228.729,249.340,267.719,279.840,284.114,285.150,284.552,284.856,282.807,283.937,282.245,283.949,284.063,
    53,05/05/19 00:28:55,41, 285.5770,  75.2400,1011.7760, 240.4900,1
    54,05/05/19 00:29:39,51,  0.00, 19.80,299.854, 71.896, 75.178, 75.710, 71.880, 72.203, 67.373, 63.302, 62.150, 56.209, 51.644, 48.716, 44.811, 44.241, 43.143, 42.651, 42.161, 40.603, 40.609, 40.321, 40.261, 42.285,216.352,234.628,254.242,270.870,280.703,284.123,284.819,284.394,284.271,283.866,284.135,282.607,283.866,283.662,
    55,05/05/19 00:30:01,51,  0.00, 90.00,299.860, 28.422, 29.434, 29.333, 28.030, 28.822, 26.351, 24.514, 24.456, 21.907, 20.544, 19.050, 18.087, 17.776, 17.063, 17.104, 16.892, 16.170, 16.423, 16.430, 16.001, 17.074,111.449,128.319,153.206,184.278,220.252,252.745,274.687,282.502,284.166,282.546,282.777,280.081,282.735,282.413,
    56,05/05/19 00:30:23,51,  0.00,160.20,299.889, 68.979, 71.651, 71.851, 68.186, 68.779, 63.462, 59.876, 58.427, 52.692, 49.092, 45.423, 42.252, 42.177, 40.610, 40.145, 39.632, 38.313, 38.018, 37.862, 37.905, 39.451,209.735,228.581,249.641,268.322,279.965,283.950,285.038,284.639,284.024,283.799,283.919,282.568,284.140,284.212,
    57,05/05/19 00:30:47,41, 285.8700,  75.4800,1011.8160, 245.4200,1
    58,05/05/19 00:31:31,51,  0.00, 19.80,299.829, 71.566, 74.927, 75.471, 71.570, 71.952, 67.053, 63.298, 62.081, 56.069, 50.751, 48.601, 44.564, 44.732, 43.466, 43.303, 42.373, 40.650, 41.104, 40.119, 40.471, 41.594,216.161,234.745,254.195,270.518,280.395,283.671,284.688,284.541,284.490,283.527,283.566,282.209,284.079,284.243,
    59,05/05/19 00:31:53,51,  0.00, 90.00,299.862, 27.449, 28.642, 29.264, 27.470, 27.949, 25.796, 24.318, 24.135, 21.161, 19.398, 18.857, 17.494, 17.477, 16.595, 17.386, 17.014, 15.688, 16.644, 15.890, 16.607, 16.157,110.794,128.600,152.915,184.394,219.990,252.626,274.353,282.647,284.050,282.848,282.888,279.884,282.980,283.063,
    60,05/05/19 00:32:15,51,  0.00,160.20,299.890, 68.122, 71.009, 71.404, 67.712, 68.289, 62.899, 59.599, 58.369, 52.341, 47.959, 45.107, 42.094, 41.697, 40.132, 40.665, 39.572, 37.815, 38.299, 37.821, 38.173, 39.177,209.420,228.461,249.829,268.283,279.170,283.656,285.449,284.898,284.659,283.784,283.878,282.488,283.836,284.519,
    61,05/05/19 00:32:38,41, 285.9130,  74.4900,1011.7740, 264.0800,1
    62,05/05/19 00:33:22,51,  0.00, 19.80,299.858, 72.341, 75.068, 75.351, 71.887, 71.596, 67.609, 63.676, 61.776, 56.727, 51.062, 48.881, 45.288, 44.643, 43.524, 43.015, 42.271, 40.783, 40.878, 40.446, 40.995, 42.386,216.411,234.718,254.084,270.470,280.638,284.010,284.744,284.767,283.691,283.115,283.977,282.897,284.073,284.330,
    63,05/05/19 00:33:44,51,  0.00, 90.00,299.857, 28.798, 29.347, 29.325, 27.871, 27.950, 26.145, 24.867, 24.193, 22.278, 20.503, 19.357, 17.965, 17.914, 17.111, 17.729, 17.123, 16.381, 16.719, 16.674, 16.965, 17.809,111.706,129.313,153.459,184.557,220.222,253.181,275.087,282.142,283.619,282.875,283.343,280.379,282.918,282.710,
    64,05/05/19 00:34:07,51,  0.00,160.20,299.889, 68.996, 71.688, 71.477, 68.457, 68.197, 63.601, 59.957, 57.936, 52.925, 48.819, 45.386, 42.140, 41.646, 40.827, 40.675, 39.471, 38.493, 38.004, 38.165, 37.900, 39.649,209.874,228.619,249.699,268.035,279.338,284.174,285.232,284.769,283.993,283.971,284.201,282.559,284.011,284.042,
    65,05/05/19 00:34:30,41, 285.9950,  74.8200,1011.8020, 266.0200,1
    66,05/05/19 00:35:14,51,  0.00, 19.80,299.862, 71.548, 74.785, 74.894, 71.451, 71.746, 66.548, 63.120, 61.920, 55.954, 50.987, 48.423, 44.806, 44.382, 42.750, 42.579, 42.222, 40.660, 40.710, 40.503, 40.924, 42.005,216.209,235.071,254.266,270.842,279.883,284.068,284.661,284.587,284.225,283.353,284.060,282.031,284.485,284.027,
    67,05/05/19 00:35:36,51,  0.00, 90.00,299.891, 28.041, 29.038, 29.080, 27.755, 28.056, 25.631, 24.481, 24.326, 21.891, 20.195, 19.480, 17.615, 18.032, 16.846, 17.411, 17.535, 16.073, 16.396, 16.250, 16.924, 16.287,111.121,128.887,153.138,184.407,219.971,253.168,274.890,282.218,283.935,282.642,283.381,280.138,282.994,282.677,
    68,05/05/19 00:35:58,51,  0.00,160.20,299.869, 68.590, 71.335, 71.172, 68.101, 68.404, 63.210, 59.875, 58.613, 52.801, 48.382, 45.389, 42.025, 42.011, 40.652, 40.200, 39.853, 38.486, 38.355, 38.236, 38.344, 39.189,209.296,228.886,249.760,268.213,279.306,283.773,285.030,284.755,284.106,283.411,284.012,282.448,284.367,284.358,
    69,05/05/19 00:36:21,41, 285.9680,  74.3900,1011.8400, 253.5200,1
    70,05/05/19 00:37:05,51,  0.00, 19.80,299.808, 71.284, 74.191, 75.056, 71.411, 71.266, 67.026, 62.914, 62.034, 55.659, 50.506, 48.499, 44.193, 44.357, 43.031, 42.582, 42.074, 40.520, 41.119, 39.982, 40.807, 41.134,216.502,234.057,253.774,270.281,280.580,284.668,284.786,284.343,285.428,283.372,283.778,282.745,284.411,284.913,
    71,05/05/19 00:37:27,51,  0.00, 90.00,299.890, 28.137, 29.338, 29.910, 28.121, 27.992, 26.494, 24.902, 24.959, 21.810, 20.150, 19.269, 17.574, 18.233, 17.021, 17.459, 17.277, 16.212, 16.869, 16.568, 16.767, 16.911,111.070,128.356,153.122,184.307,219.981,253.716,274.576,282.426,284.510,282.787,283.199,280.010,283.075,282.947,
    72,05/05/19 00:37:50,51,  0.00,160.20,299.853, 68.569, 71.494, 72.072, 68.047, 68.345, 63.637, 59.633, 58.952, 52.863, 48.611, 45.405, 42.315, 42.444, 40.901, 40.471, 39.638, 38.456, 38.558, 38.006, 38.307, 39.246,209.758,228.042,249.668,267.986,279.639,284.178,284.973,285.073,285.001,283.012,283.726,282.339,283.928,285.030,
    73,05/05/19 00:38:14,41, 285.9410,  74.5300,1011.7820, 258.5400,1
    74,05/05/19 00:38:57,51,  0.00, 19.80,299.807, 70.825, 74.057, 74.660, 71.117, 71.099, 66.837, 62.945, 61.754, 56.232, 50.611, 48.254, 44.914, 44.011, 43.169, 42.378, 42.237, 40.448, 40.806, 40.037, 40.842, 42.187,216.325,234.440,253.536,270.381,280.230,283.941,284.564,284.560,284.457,283.633,284.113,282.901,284.455,283.592,
    75,05/05/19 00:39:19,51,  0.00, 90.00,299.808, 28.218, 29.218, 29.832, 28.132, 28.759, 26.493, 25.110, 24.733, 22.147, 20.474, 18.961, 18.285, 18.006, 16.915, 17.255, 17.107, 16.210, 16.737, 16.298, 16.540, 16.668,111.482,128.385,152.653,184.365,219.950,252.923,274.803,282.276,283.592,282.796,283.408,280.374,283.066,282.937,
    76,05/05/19 00:39:42,51,  0.00,160.20,299.793, 68.166, 70.740, 71.334, 67.818, 67.908, 63.325, 59.997, 58.627, 53.035, 48.429, 45.642, 42.787, 42.255, 40.533, 40.577, 39.987, 38.453, 38.290, 37.865, 38.035, 40.040,209.975,228.666,249.408,268.149,279.316,284.053,285.066,284.500,284.483,283.878,284.059,282.913,284.511,283.471,
    77,05/05/19 00:40:05,41, 285.9680,  74.4500,1011.7820, 248.9200,1
    78,05/05/19 00:40:49,51,  0.00, 19.80,299.774, 70.263, 74.004, 74.487, 70.942, 71.097, 66.205, 62.273, 60.593, 55.212, 50.463, 47.600, 43.889, 44.052, 42.935, 42.101, 41.759, 40.111, 40.310, 39.922, 40.430, 41.184,216.281,234.334,254.008,270.637,280.674,284.079,284.938,285.075,284.811,284.025,284.322,282.640,283.819,284.099,
    79,05/05/19 00:41:11,51,  0.00, 90.00,299.784, 27.862, 29.501, 29.660, 28.331, 28.478, 26.105, 24.415, 23.916, 22.023, 19.557, 18.921, 17.283, 17.701, 16.675, 17.184, 17.351, 16.171, 16.570, 16.511, 16.518, 16.440,111.492,128.324,152.950,184.624,220.236,253.525,274.684,282.368,285.305,283.307,283.579,279.949,282.659,282.665,
    80,05/05/19 00:41:33,51,  0.00,160.20,299.762, 67.632, 71.063, 71.066, 67.782, 68.446, 62.899, 59.087, 57.566, 52.259, 48.049, 45.079, 41.761, 41.976, 40.411, 40.386, 39.559, 37.568, 37.725, 37.940, 38.033, 38.969,210.184,229.033,250.281,268.452,279.322,284.151,285.171,284.906,285.068,283.554,284.138,282.734,283.854,284.446,
    81,05/05/19 00:41:57,41, 285.6050,  74.6900,1011.7260, 235.7700,1
    82,05/05/19 00:42:40,51,  0.00, 19.80,299.683, 70.144, 73.982, 74.344, 70.762, 70.530, 65.533, 61.942, 60.515, 54.959, 50.100, 47.801, 43.959, 43.641, 42.759, 42.207, 41.971, 39.488, 39.974, 39.512, 40.243, 41.659,216.359,234.853,253.938,271.167,280.755,284.813,284.848,284.461,284.749,283.601,284.083,282.526,284.471,284.855,
    83,05/05/19 00:43:03,51,  0.00, 90.00,299.658, 27.702, 29.721, 30.120, 28.104, 28.443, 25.985, 24.660, 24.388, 21.942, 20.200, 19.303, 17.952, 17.982, 17.169, 17.563, 17.155, 15.879, 16.295, 16.260, 16.680, 17.252,112.067,129.580,153.330,184.622,220.505,253.237,274.810,282.312,284.887,282.112,283.286,280.421,283.518,282.797,
    84,05/05/19 00:43:25,51,  0.00,160.20,299.645, 68.025, 71.434, 71.940, 68.094, 68.080, 62.959, 59.517, 58.185, 52.745, 48.382, 45.437, 42.178, 42.105, 40.712, 40.327, 39.543, 38.099, 38.006, 37.887, 38.322, 39.662,210.063,229.223,250.183,268.586,279.733,284.351,285.129,284.295,284.697,283.337,284.067,282.530,284.266,284.342,
    85,05/05/19 00:43:49,41, 285.5660,  75.7200,1011.7760, 252.5000,1
    86,05/05/19 00:44:32,51,  0.00, 19.80,299.568, 70.916, 74.232, 74.521, 71.082, 71.579, 66.769, 63.353, 61.495, 55.842, 51.388, 48.377, 44.690, 44.235, 43.451, 42.705, 42.058, 40.204, 40.436, 40.270, 40.880, 42.279,216.334,234.671,254.362,270.634,280.607,284.277,284.823,284.655,284.147,284.165,284.393,283.265,284.453,284.106,